Tracking 19149 objects as of 22-Apr-2018
HD Live streaming from Space Station
objects crossing your sky now

FENGYUN 1C DEB

Track FENGYUN 1C DEB now!
10-day predictions


NORAD ID: 31516
Int'l Code: 1999-025BXF
Perigee: 716.6 km
Apogee: 944.8 km
Inclination: 98.8 °
Period: 101.4 minutes
Semi major axis: 7201 km
RCS: 0.0097 m2 (small)
Launch date: May 10, 1999
Source: People's Republic of China (PRC)
Launch site: Taiyaun Space Center, China (TSC)

Note: This is SATELLITE DEBRIS
aabbcc
Your satellite tracking list
Your tracking list is empty




NASA's NSSDC Master Catalog

Two Line Element Set (TLE):
1 31516U 99025BXF 18111.72477240 +.00000118 +00000-0 +66798-4 0  9996
2 31516 098.7815 202.2365 0158422 013.0295 139.8804 14.20519270568168
Source of the keplerian elements: AFSPC